Time,TemperatureF,DewpointF,PressureIn,WindDirection,WindDirectionDegrees,WindSpeedMPH,WindSpeedGustMPH,Humidity,HourlyPrecipIn,Conditions,Clouds,dailyrainin,SoftwareType,DateUTC
2013-08-08 00:02:00,86.0,69.0,-100.00,North,-999,-999.0,-999.0,57,0.00,,,0.00,,2013-08-08 05:02:00,
2013-08-08 00:22:00,86.0,70.0,-100.00,North,-999,-999.0,-999.0,60,0.00,,,0.00,,2013-08-08 05:22:00,
2013-08-08 00:33:00,85.0,71.0,-100.00,North,-999,-999.0,-999.0,62,0.00,,,0.00,,2013-08-08 05:33:00,
2013-08-08 00:52:00,85.0,71.0,-100.00,North,-999,-999.0,-999.0,64,0.00,,,0.00,,2013-08-08 05:52:00,
2013-08-08 01:01:00,84.0,71.0,-100.00,North,-999,-999.0,-999.0,65,0.00,,,0.00,,2013-08-08 06:01:00,
2013-08-08 01:21:00,84.0,71.0,-100.00,North,-999,-999.0,-999.0,65,0.00,,,0.00,,2013-08-08 06:21:00,
2013-08-08 01:32:00,83.0,71.0,-100.00,North,-999,-999.0,-999.0,66,0.00,,,0.00,,2013-08-08 06:32:00,
2013-08-08 01:43:00,83.0,71.0,-100.00,North,-999,-999.0,-999.0,66,0.00,,,0.00,,2013-08-08 06:43:00,
2013-08-08 01:52:00,82.0,70.0,-100.00,North,-999,-999.0,-999.0,67,0.00,,,0.00,,2013-08-08 06:52:00,
2013-08-08 02:01:00,82.0,70.0,-100.00,North,-999,-999.0,-999.0,66,0.00,,,0.00,,2013-08-08 07:01:00,
2013-08-08 02:22:00,81.0,70.0,-100.00,North,-999,-999.0,-999.0,68,0.00,,,0.00,,2013-08-08 07:22:00,
2013-08-08 02:32:00,81.0,70.0,-100.00,North,-999,-999.0,-999.0,70,0.00,,,0.00,,2013-08-08 07:32:00,
2013-08-08 02:53:00,80.0,70.0,-100.00,North,-999,-999.0,-999.0,71,0.00,,,0.00,,2013-08-08 07:53:00,
2013-08-08 03:02:00,79.0,70.0,-100.00,North,-999,-999.0,-999.0,72,0.00,,,0.00,,2013-08-08 08:02:00,
2013-08-08 03:22:00,79.0,69.0,-100.00,North,-999,-999.0,-999.0,72,0.00,,,0.00,,2013-08-08 08:22:00,
2013-08-08 03:32:00,79.0,69.0,-100.00,North,-999,-999.0,-999.0,73,0.00,,,0.00,,2013-08-08 08:32:00,
2013-08-08 03:53:00,78.0,70.0,-100.00,North,-999,-999.0,-999.0,75,0.00,,,0.00,,2013-08-08 08:53:00,
2013-08-08 04:01:00,77.0,69.0,-100.00,North,-999,-999.0,-999.0,76,0.00,,,0.00,,2013-08-08 09:01:00,
2013-08-08 04:22:00,77.0,69.0,-100.00,North,-999,-999.0,-999.0,77,0.00,,,0.00,,2013-08-08 09:22:00,
2013-08-08 04:32:00,77.0,69.0,-100.00,North,-999,-999.0,-999.0,78,0.00,,,0.00,,2013-08-08 09:32:00,
2013-08-08 04:43:00,77.0,69.0,-100.00,North,-999,-999.0,-999.0,78,0.00,,,0.00,,2013-08-08 09:43:00,
2013-08-08 04:53:00,77.0,69.0,-100.00,North,-999,-999.0,-999.0,78,0.00,,,0.00,,2013-08-08 09:53:00,
2013-08-08 05:01:00,77.0,69.0,-100.00,North,-999,-999.0,-999.0,78,0.00,,,0.00,,2013-08-08 10:01:00,
2013-08-08 05:11:00,77.0,69.0,-100.00,North,-999,-999.0,-999.0,78,0.00,,,0.00,,2013-08-08 10:11:00,
2013-08-08 05:33:00,75.0,69.0,-100.00,North,-999,-999.0,-999.0,81,0.00,,,0.00,,2013-08-08 10:33:00,
2013-08-08 05:52:00,75.0,69.0,-100.00,North,-999,-999.0,-999.0,83,-99.99,,,0.00,,2013-08-08 10:52:00,
2013-08-08 06:02:00,75.0,69.0,-100.00,North,-999,-999.0,-999.0,83,-99.99,,,0.00,,2013-08-08 11:02:00,
2013-08-08 06:11:00,75.0,69.0,-100.00,North,-999,-999.0,-999.0,83,-99.99,,,0.00,,2013-08-08 11:11:00,
2013-08-08 06:21:00,74.0,70.0,-100.00,North,-999,-999.0,-999.0,86,-99.99,,,0.00,,2013-08-08 11:21:00,
2013-08-08 06:32:00,74.0,70.0,-100.00,North,-999,-999.0,-999.0,87,0.00,,,0.00,,2013-08-08 11:32:00,
2013-08-08 06:52:00,74.0,70.0,-100.00,North,-999,-999.0,-999.0,88,0.00,,,0.00,,2013-08-08 11:52:00,
2013-08-08 07:01:00,74.0,70.0,-100.00,North,-999,-999.0,-999.0,88,-99.99,,,0.00,,2013-08-08 12:01:00,
2013-08-08 07:21:00,74.0,70.0,-100.00,North,-999,-999.0,-999.0,89,0.00,,,0.00,,2013-08-08 12:21:00,
2013-08-08 07:32:00,73.0,70.0,-100.00,North,-999,-999.0,-999.0,89,0.00,,,0.00,,2013-08-08 12:32:00,
2013-08-08 07:43:00,73.0,70.0,-100.00,North,-999,-999.0,-999.0,89,0.00,,,0.00,,2013-08-08 12:43:00,
2013-08-08 07:52:00,73.0,70.0,-100.00,North,-999,-999.0,-999.0,89,0.00,,,0.00,,2013-08-08 12:52:00,
2013-08-08 08:01:00,74.0,70.0,-100.00,North,-999,-999.0,-999.0,87,0.00,,,0.00,,2013-08-08 13:01:00,
2013-08-08 08:22:00,74.0,70.0,-100.00,North,-999,-999.0,-999.0,85,0.00,,,0.00,,2013-08-08 13:22:00,
2013-08-08 08:32:00,75.0,70.0,-100.00,North,-999,-999.0,-999.0,84,0.00,,,0.00,,2013-08-08 13:32:00,
2013-08-08 08:52:00,75.0,70.0,-100.00,North,-999,-999.0,-999.0,82,0.00,,,0.00,,2013-08-08 13:52:00,
2013-08-08 09:02:00,76.0,70.0,-100.00,North,-999,-999.0,-999.0,80,0.00,,,0.00,,2013-08-08 14:02:00,
2013-08-08 09:22:00,77.0,69.0,-100.00,North,-999,-999.0,-999.0,78,0.00,,,0.00,,2013-08-08 14:22:00,
2013-08-08 09:32:00,77.0,70.0,-100.00,North,-999,-999.0,-999.0,77,0.00,,,0.00,,2013-08-08 14:32:00,
2013-08-08 09:53:00,78.0,69.0,-100.00,North,-999,-999.0,-999.0,74,0.00,,,0.00,,2013-08-08 14:53:00,
2013-08-08 10:02:00,79.0,70.0,-100.00,North,-999,-999.0,-999.0,72,0.00,,,0.00,,2013-08-08 15:02:00,
2013-08-08 10:22:00,80.0,69.0,-100.00,North,-999,-999.0,-999.0,68,0.00,,,0.00,,2013-08-08 15:22:00,
2013-08-08 10:32:00,81.0,69.0,-100.00,North,-999,-999.0,-999.0,66,0.00,,,0.00,,2013-08-08 15:32:00,
2013-08-08 10:43:00,81.0,69.0,-100.00,North,-999,-999.0,-999.0,66,0.00,,,0.00,,2013-08-08 15:43:00,
2013-08-08 10:53:00,81.0,69.0,-100.00,North,-999,-999.0,-999.0,66,0.00,,,0.00,,2013-08-08 15:53:00,
2013-08-08 11:02:00,82.0,68.0,-100.00,North,-999,-999.0,-999.0,62,0.00,,,0.00,,2013-08-08 16:02:00,
2013-08-08 11:22:00,83.0,69.0,-100.00,North,-999,-999.0,-999.0,61,0.00,,,0.00,,2013-08-08 16:22:00,
2013-08-08 11:32:00,85.0,68.0,-100.00,North,-999,-999.0,-999.0,58,0.00,,,0.00,,2013-08-08 16:32:00,
2013-08-08 11:52:00,85.0,68.0,-100.00,North,-999,-999.0,-999.0,56,-99.99,,,0.00,,2013-08-08 16:52:00,
2013-08-08 12:02:00,87.0,68.0,-100.00,North,-999,-999.0,-999.0,53,0.00,,,0.00,,2013-08-08 17:02:00,
2013-08-08 12:11:00,87.0,68.0,-100.00,North,-999,-999.0,-999.0,53,0.00,,,0.00,,2013-08-08 17:11:00,
2013-08-08 12:21:00,87.0,66.0,-100.00,North,-999,-999.0,-999.0,49,0.00,,,0.00,,2013-08-08 17:21:00,
2013-08-08 12:32:00,88.0,66.0,-100.00,North,-999,-999.0,-999.0,47,0.00,,,0.00,,2013-08-08 17:32:00,
2013-08-08 12:52:00,89.0,65.0,-100.00,North,-999,-999.0,-999.0,45,0.00,,,0.00,,2013-08-08 17:52:00,
2013-08-08 13:01:00,91.0,64.0,-100.00,North,-999,-999.0,-999.0,41,0.00,,,0.00,,2013-08-08 18:01:00,
2013-08-08 13:11:00,91.0,64.0,-100.00,North,-999,-999.0,-999.0,41,0.00,,,0.00,,2013-08-08 18:11:00,
2013-08-08 13:22:00,92.0,64.0,-100.00,North,-999,-999.0,-999.0,41,0.00,,,0.00,,2013-08-08 18:22:00,
2013-08-08 13:32:00,92.0,62.0,-100.00,North,-999,-999.0,-999.0,37,0.00,,,0.00,,2013-08-08 18:32:00,
2013-08-08 13:52:00,93.0,63.0,-100.00,North,-999,-999.0,-999.0,37,0.00,,,0.00,,2013-08-08 18:52:00,
2013-08-08 14:01:00,93.0,63.0,-100.00,North,-999,-999.0,-999.0,37,0.00,,,0.00,,2013-08-08 19:01:00,
2013-08-08 14:22:00,95.0,62.0,-100.00,North,-999,-999.0,-999.0,34,0.00,,,0.00,,2013-08-08 19:22:00,
2013-08-08 14:32:00,95.0,61.0,-100.00,North,-999,-999.0,-999.0,33,0.00,,,0.00,,2013-08-08 19:32:00,
2013-08-08 14:43:00,95.0,61.0,-100.00,North,-999,-999.0,-999.0,33,0.00,,,0.00,,2013-08-08 19:43:00,
2013-08-08 14:54:00,95.0,58.0,-100.00,North,-999,-999.0,-999.0,29,0.00,,,0.00,,2013-08-08 19:54:00,
2013-08-08 15:02:00,96.0,61.0,-100.00,North,-999,-999.0,-999.0,31,0.00,,,-99.99,,2013-08-08 20:02:00,
2013-08-08 15:22:00,97.0,57.0,-100.00,North,-999,-999.0,-999.0,27,0.00,,,0.00,,2013-08-08 20:22:00,
2013-08-08 15:32:00,97.0,59.0,-100.00,North,-999,-999.0,-999.0,29,0.00,,,0.00,,2013-08-08 20:32:00,
2013-08-08 15:52:00,98.0,58.0,-100.00,North,-999,-999.0,-999.0,27,0.00,,,0.00,,2013-08-08 20:52:00,
2013-08-08 16:01:00,98.0,55.0,-100.00,North,-999,-999.0,-999.0,24,0.00,,,0.00,,2013-08-08 21:01:00,
2013-08-08 16:23:00,99.0,54.0,-100.00,North,-999,-999.0,-999.0,23,0.00,,,0.00,,2013-08-08 21:23:00,
2013-08-08 16:33:00,99.0,57.0,-100.00,North,-999,-999.0,-999.0,25,0.00,,,0.00,,2013-08-08 21:33:00,
2013-08-08 16:43:00,99.0,57.0,-100.00,North,-999,-999.0,-999.0,25,0.00,,,0.00,,2013-08-08 21:43:00,
2013-08-08 16:53:00,99.0,55.0,-100.00,North,-999,-999.0,-999.0,23,0.00,,,0.00,,2013-08-08 21:53:00,
2013-08-08 17:04:00,99.0,55.0,-100.00,North,-999,-999.0,-999.0,23,0.00,,,0.00,,2013-08-08 22:04:00,
2013-08-08 17:15:00,99.0,55.0,-100.00,North,-999,-999.0,-999.0,23,0.00,,,0.00,,2013-08-08 22:15:00,
2013-08-08 17:23:00,99.0,55.0,-100.00,North,-999,-999.0,-999.0,23,0.00,,,0.00,,2013-08-08 22:23:00,
2013-08-08 17:33:00,99.0,55.0,-100.00,North,-999,-999.0,-999.0,23,0.00,,,0.00,,2013-08-08 22:33:00,
2013-08-08 17:47:00,99.0,55.0,-100.00,North,-999,-999.0,-999.0,23,0.00,,,0.00,,2013-08-08 22:47:00,
2013-08-08 17:55:00,99.0,58.0,-100.00,North,-999,-999.0,-999.0,26,0.00,,,0.00,,2013-08-08 22:55:00,
2013-08-08 18:04:00,99.0,57.0,-100.00,North,-999,-999.0,-999.0,25,0.00,,,0.00,,2013-08-08 23:04:00,
2013-08-08 18:23:00,98.0,57.0,-100.00,North,-999,-999.0,-999.0,26,0.00,,,0.00,,2013-08-08 23:23:00,
2013-08-08 18:35:00,98.0,56.0,-100.00,North,-999,-999.0,-999.0,25,0.00,,,0.00,,2013-08-08 23:35:00,
2013-08-08 18:53:00,97.0,58.0,-100.00,North,-999,-999.0,-999.0,27,0.00,,,0.00,,2013-08-08 23:53:00,
2013-08-08 19:04:00,97.0,58.0,-100.00,North,-999,-999.0,-999.0,27,0.00,,,0.00,,2013-08-09 00:04:00,
2013-08-08 19:24:00,97.0,56.0,-100.00,North,-999,-999.0,-999.0,26,0.00,,,0.00,,2013-08-09 00:24:00,
2013-08-08 19:34:00,97.0,57.0,-100.00,North,-999,-999.0,-999.0,27,0.00,,,0.00,,2013-08-09 00:34:00,
2013-08-08 19:53:00,96.0,56.0,-100.00,North,-999,-999.0,-999.0,26,0.00,,,-99.99,,2013-08-09 00:53:00,
2013-08-08 20:02:00,95.0,57.0,-100.00,North,-999,-999.0,-999.0,28,0.00,,,-99.99,,2013-08-09 01:02:00,
2013-08-08 20:13:00,95.0,57.0,-100.00,North,-999,-999.0,-999.0,28,0.00,,,-99.99,,2013-08-09 01:13:00,
2013-08-08 20:23:00,94.0,58.0,-100.00,North,-999,-999.0,-999.0,30,0.00,,,-99.99,,2013-08-09 01:23:00,
2013-08-08 20:33:00,93.0,57.0,-100.00,North,-999,-999.0,-999.0,30,0.00,,,0.00,,2013-08-09 01:33:00,
2013-08-08 20:45:00,93.0,57.0,-100.00,North,-999,-999.0,-999.0,30,0.00,,,0.00,,2013-08-09 01:45:00,
2013-08-08 20:56:00,92.0,57.0,-100.00,North,-999,-999.0,-999.0,31,0.00,,,0.00,,2013-08-09 01:56:00,
2013-08-08 21:03:00,91.0,58.0,-100.00,North,-999,-999.0,-999.0,33,0.00,,,0.00,,2013-08-09 02:03:00,
2013-08-08 21:23:00,90.0,58.0,-100.00,North,-999,-999.0,-999.0,35,0.00,,,0.00,,2013-08-09 02:23:00,
2013-08-08 21:35:00,89.0,58.0,-100.00,North,-999,-999.0,-999.0,35,0.00,,,0.00,,2013-08-09 02:35:00,
2013-08-08 21:55:00,88.0,59.0,-100.00,North,-999,-999.0,-999.0,38,0.00,,,0.00,,2013-08-09 02:55:00,
2013-08-08 22:05:00,86.0,60.0,-100.00,North,-999,-999.0,-999.0,42,0.00,,,-99.99,,2013-08-09 03:05:00,
2013-08-08 22:23:00,85.0,59.0,-100.00,North,-999,-999.0,-999.0,42,0.00,,,0.00,,2013-08-09 03:23:00,
2013-08-08 22:34:00,87.0,56.0,-100.00,North,-999,-999.0,-999.0,35,0.00,,,0.00,,2013-08-09 03:34:00,
2013-08-08 23:01:00,87.0,59.0,-100.00,North,-999,-999.0,-999.0,39,0.00,,,0.00,,2013-08-09 04:01:00,
2013-08-08 23:22:00,87.0,60.0,-100.00,North,-999,-999.0,-999.0,41,0.00,,,0.00,,2013-08-09 04:22:00,
2013-08-08 23:33:00,87.0,61.0,-100.00,North,-999,-999.0,-999.0,42,0.00,,,0.00,,2013-08-09 04:33:00,
2013-08-08 23:43:00,87.0,61.0,-100.00,North,-999,-999.0,-999.0,42,0.00,,,0.00,,2013-08-09 04:43:00,
2013-08-08 23:53:00,86.0,61.0,-100.00,North,-999,-999.0,-999.0,43,0.00,,,0.00,,2013-08-09 04:53:00,